{"data":{"norad_id":57085,"epoch":"2026-09-20T04:55:57.926784Z","epoch_age_seconds":146359,"freshness":"FRESH","line1":"1 57085U 23088AP  26263.20553156 -.00001090  00000+0 -30085-4 0  9993","line2":"2 57085  43.0055  77.2073 0001589 259.5929 100.4743 15.27581363180250","mean_motion":15.27581363,"eccentricity":0.0001589,"inclination_deg":43.0055,"raan_deg":77.2073,"arg_perigee_deg":259.5929,"mean_anomaly_deg":100.4743,"bstar":-3.0085e-5,"rev_number":18025,"period_min":94.266664603187,"perigee_km":481.95477290821,"apogee_km":484.13525655249,"semimajor_km":6861.1820147304,"source":"CELESTRAK","updated_at":"2026-09-21T09:00:33.555701Z"}}